Date String (YYYY-MM-DD hh:mm:ss) UTC,Instrument flags,absolute air pressure of the measurement (hPa),sample flow rate (lpm),inlet stack bypass flow (lpm),air temperature of the measurement (°C),ambient temperature measured by the external sensor (°C),aerosol sample conditioner tube jacket temperature (°C),OPC LED temperature (°C),internal box temperature (°C),relative humidity of the measurement (%),span deviation,mass concentration of particles derived from Lorenz-Mie calculation of OPC scattering (μg/m³),mass concentration of particles derived from Lorenz-Mie calculation of OPC scattering (μg/m³),mass concentration of particles derived from Lorenz-Mie calculation of OPC scattering (μg/m³)
DateTimeUTC,F1_M11,P_M11,Q1_M11,Q2_M11,T1_M11,T2_M11,T3_M11,T4_M11,T5_M11,U1_M11,ZSPAN_M11,X2_M11,X0_M11,X1_M11
2023-07-23 09:00:00,SystemResetWarning,0833.9,5.00,000.00,029.5,028.0,000.0,037.9,031.0,22.2,0001.2,0007.65,0011.47,0007.26
2023-07-23 09:01:00,SystemResetWarning,0834.0,5.00,000.00,029.5,028.1,000.0,037.9,031.1,22.5,0001.2,0007.66,0011.43,0007.28
2023-07-23 09:02:00,SystemResetWarning,0833.9,5.00,000.00,029.5,028.1,000.0,037.9,031.1,22.8,0000.0,0007.64,0011.66,0007.28
2023-07-23 09:03:00,SystemResetWarning,0834.0,5.00,000.00,029.5,028.2,000.0,038.0,031.1,22.9,0000.0,0007.62,0011.51,0007.28
2023-07-23 09:04:00,SystemResetWarning,0833.9,5.00,000.00,029.5,028.2,000.0,038.0,031.2,23.2,0000.0,0007.59,0011.35,0007.28
2023-07-23 09:05:00,SystemResetWarning,0833.9,5.00,000.00,029.6,028.3,000.0,038.0,031.2,23.5,0000.0,0007.56,0011.29,0007.28
2023-07-23 09:06:00,SystemResetWarning,0833.9,4.99,000.00,029.6,028.3,000.0,038.0,031.2,23.1,0000.0,0007.57,0011.29,0007.28
2023-07-23 09:07:00,SystemResetWarning,0833.9,5.00,000.00,029.6,028.3,000.0,038.0,031.2,22.5,0000.0,0007.58,0011.24,0007.28
2023-07-23 09:08:00,SystemResetWarning,0833.9,5.00,000.00,029.6,028.4,000.0,038.0,031.2,22.0,0000.0,0007.60,0011.54,0007.31
2023-07-23 09:09:00,SystemResetWarning,0833.9,5.00,000.00,029.7,028.4,000.0,038.1,031.3,21.7,0000.0,0007.61,0011.76,0007.32
2023-07-23 09:10:00,SystemResetWarning,0833.8,5.00,000.00,029.7,028.4,000.0,038.1,031.3,21.6,0000.0,0007.66,0011.96,0007.34
2023-07-23 09:11:00,SystemResetWarning,0833.8,5.00,000.00,029.7,028.4,000.0,038.1,031.3,21.5,0000.0,0007.70,0011.51,0007.34
2023-07-23 09:12:00,SystemResetWarning,0833.8,5.00,000.00,029.7,028.5,000.0,038.1,031.3,21.4,0000.0,0007.70,0011.79,0007.34
2023-07-23 09:13:00,SystemResetWarning,0833.7,5.00,000.00,029.7,028.5,000.0,038.1,031.3,21.3,0000.0,0007.70,0011.88,0007.34
2023-07-23 09:14:00,SystemResetWarning,0833.8,5.00,000.00,029.8,028.5,000.0,038.2,031.4,21.2,0000.0,0007.72,0012.36,0007.35
2023-07-23 09:15:00,SystemResetWarning,0833.8,5.00,000.00,029.8,028.5,000.0,038.2,031.4,21.4,0000.0,0007.77,0012.62,0007.37
2023-07-23 09:16:00,SystemResetWarning,0833.8,5.00,000.00,029.8,028.6,000.0,038.2,031.4,22.1,0000.0,0007.81,0012.75,0007.40
2023-07-23 09:17:00,SystemResetWarning,0833.8,5.00,000.00,029.8,028.6,000.0,038.2,031.4,22.0,0000.0,0007.87,0012.86,0007.43
2023-07-23 09:18:00,SystemResetWarning,0833.8,4.99,000.00,029.8,027.4,000.0,038.1,031.4,21.9,0000.0,0007.88,0012.90,0007.46
2023-07-23 09:19:00,SystemResetWarning,0833.7,5.01,000.00,029.8,025.6,000.0,038.0,031.1,21.9,0000.0,0007.87,0012.76,0007.47
2023-07-23 09:20:00,SystemResetWarning,0833.7,5.01,000.00,029.6,025.1,000.0,037.9,030.8,21.8,0000.0,0007.88,0012.61,0007.48
2023-07-23 09:21:00,SystemResetWarning,0833.7,5.01,000.00,029.5,025.4,000.0,038.0,030.6,21.5,0000.0,0007.91,0012.85,0007.50
2023-07-23 09:22:00,SystemResetWarning,0833.7,4.99,000.00,029.4,025.8,000.0,038.0,030.7,20.9,0000.0,0007.92,0012.76,0007.52
2023-07-23 09:23:00,SystemResetWarning,0833.7,4.99,000.00,029.4,026.2,000.0,038.0,030.7,20.5,0000.2,0007.95,0012.47,0007.55
2023-07-23 09:24:00,SystemResetWarning,0833.7,5.00,000.00,029.4,026.6,000.0,038.0,030.8,20.9,0000.3,0008.00,0012.27,0007.58
2023-07-23 09:25:00,SystemResetWarning,0833.8,5.01,000.00,029.4,026.9,000.0,038.0,030.8,20.9,0000.2,0008.02,0011.54,0007.59
2023-07-23 09:26:00,SystemResetWarning,0833.7,4.99,000.00,029.4,027.1,000.0,038.0,030.8,21.4,0000.0,0008.01,0011.39,0007.61
2023-07-23 09:27:00,SystemResetWarning,0833.7,4.99,000.00,029.4,027.4,000.0,038.0,030.9,21.9,-000.1,0008.03,0011.63,0007.62
2023-07-23 09:28:00,SystemResetWarning,0833.7,5.00,000.00,029.4,027.5,000.0,037.9,030.9,21.2,-000.4,0008.03,0011.67,0007.63
2023-07-23 09:29:00,SystemResetWarning,0833.7,5.00,000.00,029.4,027.7,000.0,037.9,031.0,20.2,-000.5,0008.06,0011.74,0007.65
2023-07-23 09:30:00,SystemResetWarning,0833.7,5.00,000.00,029.4,027.8,000.0,037.9,031.0,20.5,-000.7,0008.11,0011.86,0007.65
2023-07-23 09:31:00,SystemResetWarning,0833.7,5.00,000.00,029.5,027.9,000.0,037.9,031.0,20.7,-000.8,0008.12,0011.78,0007.65
2023-07-23 09:32:00,SystemResetWarning,0833.7,5.01,000.00,029.5,028.0,000.0,038.0,031.1,21.6,-000.8,0008.11,0011.81,0007.64
2023-07-23 09:33:00,SystemResetWarning,0833.7,5.00,000.00,029.5,028.1,000.0,038.0,031.1,21.9,-001.0,0008.11,0012.12,0007.63
2023-07-23 09:34:00,SystemResetWarning,0833.6,4.99,000.00,029.5,028.1,000.0,038.0,031.1,21.3,-001.2,0008.11,0012.17,0007.61
2023-07-23 09:35:00,SystemResetWarning,0833.7,4.99,000.00,029.5,028.2,000.0,038.0,031.1,21.1,-000.7,0008.09,0012.73,0007.59
2023-07-23 09:36:00,SystemResetWarning,0833.7,5.00,000.00,029.6,028.2,000.0,038.0,031.2,21.4,-000.1,0008.06,0012.61,0007.57
2023-07-23 09:37:00,SystemResetWarning,0833.7,5.01,000.00,029.6,028.3,000.0,038.0,031.2,21.4,-000.2,0008.00,0012.41,0007.54
2023-07-23 09:38:00,SystemResetWarning,0833.7,5.01,000.00,029.6,028.3,000.0,038.0,031.2,21.5,-000.1,0007.97,0012.07,0007.50
2023-07-23 09:39:00,SystemResetWarning,0833.7,5.00,000.00,029.6,028.3,000.0,038.0,031.2,21.1,0000.5,0007.95,0011.97,0007.47
2023-07-23 09:40:00,SystemResetWarning,0833.7,4.99,000.00,029.6,028.4,000.0,038.1,031.2,21.0,0000.4,0007.92,0011.90,0007.45
2023-07-23 09:41:00,SystemResetWarning,0833.7,5.00,000.00,029.7,028.4,000.0,038.1,031.2,20.6,0000.6,0007.90,0011.79,0007.45
2023-07-23 09:42:00,SystemResetWarning,0833.7,5.01,000.00,029.7,028.4,000.0,038.1,031.3,20.2,0001.0,0007.88,0011.78,0007.44
2023-07-23 09:43:00,SystemResetWarning,0833.7,5.00,000.00,029.7,028.4,000.0,038.1,031.3,20.8,0000.9,0007.85,0011.40,0007.41
2023-07-23 09:44:00,SystemResetWarning,0833.8,5.01,000.00,029.7,028.5,000.0,038.1,031.3,20.5,0001.0,0007.84,0011.16,0007.40
2023-07-23 09:45:00,SystemResetWarning,0833.7,5.00,000.00,029.7,028.5,000.0,038.2,031.3,19.5,0001.2,0007.81,0011.06,0007.40
2023-07-23 09:46:00,SystemResetWarning,0833.7,5.00,000.00,029.8,028.5,000.0,038.2,031.4,19.4,0000.1,0007.80,0010.57,0007.40
2023-07-23 09:47:00,SystemResetWarning,0833.7,4.99,000.00,029.8,028.5,000.0,038.2,031.4,19.2,0000.0,0007.79,0010.41,0007.40
2023-07-23 09:48:00,SystemResetWarning,0833.7,5.00,000.00,029.8,028.5,000.0,038.2,031.4,19.6,0000.0,0007.82,0010.63,0007.40
2023-07-23 09:49:00,SystemResetWarning,0833.7,4.99,000.00,029.8,028.5,000.0,038.2,031.4,20.0,0000.9,0007.85,0010.76,0007.43
2023-07-23 09:50:00,SystemResetWarning,0833.7,4.99,000.00,029.9,028.6,000.0,038.3,031.4,20.1,0000.3,0007.85,0010.78,0007.44
2023-07-23 09:51:00,SystemResetWarning,0833.8,5.00,000.00,029.9,028.6,000.0,038.3,031.5,19.9,0000.0,0007.84,0010.76,0007.44
2023-07-23 09:52:00,SystemResetWarning,0833.7,5.01,000.00,029.9,028.6,000.0,038.3,031.5,19.8,0000.0,0007.85,0010.77,0007.45
2023-07-23 09:53:00,SystemResetWarning,0833.7,4.99,000.00,029.9,027.8,000.0,038.2,031.4,19.8,0000.0,0007.85,0010.67,0007.46
2023-07-23 09:54:00,SystemResetWarning,0833.7,4.99,000.00,029.8,025.7,000.0,038.1,031.2,19.8,0000.1,0007.87,0010.70,0007.48
2023-07-23 09:55:00,SystemResetWarning,0833.6,5.02,000.00,029.7,025.0,000.0,038.0,030.9,20.0,0000.2,0007.87,0010.67,0007.51
2023-07-23 09:56:00,SystemResetWarning,0833.7,5.00,000.00,029.6,025.2,000.0,038.0,030.7,20.3,0000.4,0007.88,0010.68,0007.51
2023-07-23 09:57:00,SystemResetWarning,0833.7,5.00,000.00,029.5,025.6,000.0,038.0,030.7,20.3,0000.7,0007.88,0010.79,0007.49
2023-07-23 09:58:00,SystemResetWarning,0833.6,4.99,000.00,029.4,026.1,000.0,038.0,030.7,19.9,0001.1,0007.88,0010.93,0007.48
2023-07-23 09:59:00,SystemResetWarning,0833.7,5.01,000.00,029.4,026.5,000.0,038.0,030.7,19.2,0000.5,0007.84,0010.76,0007.46
